Regional Weather Roundup
Issued by NWS

Home | Current Version | Previous Version | Text Only | Print | Product List | Glossary On
Versions: 1 2 3 4 5 6 7 8 9 10 11 12 13 14 15 16 17 18 19 20 21 22 23 24 25 26 27 28 29 30 31 32 33 34 35 36 37 38 39 40 41 42 43 44 45 46 47 48 49 50
000
ASUS44 KFWD 290803
RWRTX
NORTH TEXAS HOURLY WEATHER ROUNDUP
NATIONAL WEATHER SERVICE FORT WORTH TX
300 AM CDT FRI AUG 29 2014

NOTE: "FAIR" INDICATES FEW OR NO CLOUDS BELOW 12,000 FEET WITH NO
SIGNIFICANT WEATHER AND/OR OBSTRUCTIONS TO VISIBILITY.

TXZ118-119-290900-
DALLAS/FORT WORTH METROPLEX

CITY           SKY/WX    TMP DP  RH WIND       PRES   REMARKS
DFW AIRPORT    CLOUDY    75  66  73 NW15      29.94R
DALLAS LOVE    MOCLDY    79  65  62 N10       29.93R
FTW MEACHAM    CLOUDY    73  66  78 N12       29.94R
DAL-EXECUTIVE  PTCLDY    80  71  74 VRB3      29.92R
FTW-ALLIANCE   RAIN      69  67  93 N7        29.94S
FTW-NAS-JRB    CLOUDY    76  66  71 N15       29.98S
FTW-SPINKS     CLOUDY    78  65  64 N16       29.95R
ARLINGTON      CLOUDY    81  70  69 W5        29.93R
GRAND PRAIRIE  MOCLDY    81  69  68 W3        29.94R
ADDISON        RAIN      76  64  66 N9        29.96S
MESQUITE       PTCLDY    75  70  83 S5        29.91F
LANCASTER      MOCLDY    76  68  78 CALM      29.92S
$$

TXZ091>094-102>105-117-120-121-131>134-290900-
NORTH CENTRAL TEXAS

CITY           SKY/WX    TMP DP  RH WIND       PRES   REMARKS
SHRMAN/DENISON RAIN      72  66  82 W8        29.95S
GAINESVILLE    CLOUDY    68  65  91 W9        29.95F
BOWIE          TSTM      66  66  98 SE6       29.96F
BRIDGEPORT     TSTM      68  68 100 NE7       29.98F
DECATUR        LGT RAIN  67  66  97 N5        29.96F
DENTON         LGT RAIN  71  66  84 NW6       29.95R
MCKINNEY       CLOUDY    74  65  73 NW8       29.95R
GREENVILLE     MOCLDY    77  68  73 S7        29.92S
ROCKWALL       PTCLDY    77  71  81 CALM      29.92R
TERRELL        MOCLDY    79  73  82 CALM      29.92R
WAXAHACHIE     PTCLDY    75  69  80 CALM      29.93S
CLEBURNE       MOCLDY    79  72  78 CALM      29.95R
GRANBURY       RAIN      73  66  80 NW12      29.97S
$$

TXZ083>090-098>101-113>116-127>130-139>142-154-155-290900-
WESTERN NORTH TEXAS

CITY           SKY/WX    TMP DP  RH WIND       PRES   REMARKS
WICHITA FALLS  CLOUDY    70  67  90 N3        29.89R
WF-KICKAPOO    CLOUDY    71  69  93 CALM      29.90R
VERNON         CLOUDY    69  65  88 CALM      29.91R
ABILENE        TSTM      71  68  90 SE22      29.93F
ABILENE-DYESS  TSTM      70  68  94 SE22G29   29.89F
BRECKENRIDGE   CLOUDY    71  69  93 SW8       29.94R
MINERAL WELLS  TSTM      68  67  96 E6        29.93F FOG
STEPHENVILLE   CLOUDY    72  65  79 NW16      30.02R VSB 3/4
COMANCHE         N/A     74  65  74 N10G21    29.98R
BROWNWOOD      HVY RAIN  68  66  94 N18G25    29.98R VSB 1/2
COLEMAN        CLOUDY    73  69  88 N7        29.98R THUNDER
BRADY          PTCLDY    75  70  83 SE7       29.93S
$$

TXZ143>147-156>162-174-175-290900-
CENTRAL TEXAS

CITY           SKY/WX    TMP DP  RH WIND       PRES   REMARKS
WACO           MOCLDY    79  70  74 S12       29.91R
WACO-MCGREGOR  CLEAR     79  66  65 S10       29.93R
HILLSBORO      CLEAR     77  69  75 SE7       29.92S
CORSICANA      CLOUDY    78  71  79 S5        29.93R
MEXIA          PTCLDY    75  72  88 CALM      29.91S
HEARNE           N/A     74  71  88 CALM      29.90S
CAMERON        CLEAR     76  71  82 SE3       29.90R
TEMPLE         CLEAR     75  66  73 SE6       29.92R
KILLEEN        PTCLDY    75  72  88 SE10      29.92S
KILLEEN-SKYLRK PTCLDY    77  66  69 SE10      29.91F
FORT HOOD      PTCLDY    79  71  76 SE7       29.93R
GATESVILLE     PTCLDY    77  70  78 SE3       29.95R
LAMPASAS       PTCLDY    76  72  87 SE5       29.92S
$$

TXZ095>097-106>112-122>126-135>138-148>153-164>167-290900-
EAST TEXAS

CITY           SKY/WX    TMP DP  RH WIND       PRES   REMARKS
PARIS          PTCLDY    75  66  73 S7        29.92S
SULPHUR SPRNGS CLOUDY    79  70  74 S5        29.94R
CLARKSVILLE    CLEAR     76  69  80 SE3       29.91S
MOUNT PLEASANT PTCLDY    75  71  87 CALM      29.93R
GILMER         CLEAR     79  73  83 S6        29.93F
MINEOLA        CLEAR     79  73  83 S3        29.93R
TYLER          MOCLDY    77  72  84 S7        29.92F
LONGVIEW       CLOUDY    78  72  81 S7        29.92S
MARSHALL       PTCLDY    79  73  84 CALM      29.94S
ATHENS         PTCLDY    73  70  88 CALM      29.91S
PALESTINE      CLEAR     75  73  93 CALM      29.93R
JACKSONVILLE   PTCLDY    76  74  93 CALM      29.94S
HENDERSON      CLOUDY    75  73  92 CALM      29.93S
NACOGDOCHES    CLEAR     75  72  88 SE5       29.92S
LUFKIN         CLEAR     77  73  87 SE6       29.91F
$$

SUPPLEMENTAL OBSERVATIONS (CENTRAL)

CITY           SKY/WX    TMP DP  RH WIND       PRES   REMARKS
$$

SUPPLEMENTAL OBSERVATIONS (WEST)

CITY           SKY/WX    TMP DP  RH WIND       PRES   REMARKS
$$

SUPPLEMENTAL OBSERVATIONS (EAST)

CITY           SKY/WX    TMP DP  RH WIND       PRES   REMARKS
$$

SUPPLEMENTAL OBSERVATIONS ARE A COLLECTION OF AUTOMATED INSTRUMENTS
THAT ARE MAINTAINED BY A VARIETY OF FEDERAL AND STATE AGENCIES.
CERTAIN ELEMENTS...SUCH AS HUMIDITY VALUES AND SUSTAINED WIND
SPEEDS...MAY BE APPROXIMATED.




USA.gov is the U.S. government's official web portal to all federal, state and local government web resources and services.